This is the latest recevied weather packets stored in our database for station/object KC3ULW-13. If no packets are shown the sender has not sent any weather packets the latest 1 day(s).
| Time | Temp. | Humidity | Pressure | Rain* | Wind** | Luminosity | Snow |
|---|---|---|---|---|---|---|---|
| 1778070797 | 10.56° C | 93% | 1009.6 hPa | 1.27 mm | - | 19 W/m² | - |
| 1778069585 | 13.33° C | 94% | 1009.3 hPa | 1.27 mm | - | 4 W/m² | - |
| 1778067469 | 13.89° C | 94% | 1008.5 hPa | 0 mm | - | 9 W/m² | - |
| 1778066560 | 13.89° C | 93% | 1008.4 hPa | 0 mm | - | 17 W/m² | - |
| 1778066257 | 13.89° C | 93% | 1008.3 hPa | 0 mm | - | 13 W/m² | - |
| 1778065350 | 13.89° C | 93% | 1008 hPa | 0 mm | - | 33 W/m² | - |
| 1778065046 | 13.89° C | 93% | 1008.4 hPa | 1.27 mm | - | 13 W/m² | - |
| 1778064441 | 13.89° C | 93% | 1008.5 hPa | 3.05 mm | - | 2 W/m² | - |
| 1778064138 | 13.89° C | 93% | 1008.3 hPa | 3.05 mm | - | 0 W/m² | - |
| 1778063835 | 13.89° C | 92% | 1008.3 hPa | 3.05 mm | - | 0 W/m² | - |
| 1778063532 | 13.89° C | 92% | 1008.6 hPa | 3.05 mm | - | 0 W/m² | - |
| 1778062928 | 13.89° C | 92% | 1008.6 hPa | 1.27 mm | - | 0 W/m² | - |
| 1778062321 | 13.89° C | 92% | 1008.7 hPa | 3.05 mm | - | 0 W/m² | - |
| 1778061415 | 13.89° C | 91% | 1008.6 hPa | 4.83 mm | - | 0 W/m² | - |
| 1778061112 | 13.89° C | 91% | 1008.6 hPa | 3.05 mm | - | 0 W/m² | - |
| 1778060809 | 13.89° C | 91% | 1008.5 hPa | 3.05 mm | - | 0 W/m² | - |
| 1778060507 | 13.89° C | 91% | 1008.6 hPa | 1.78 mm | - | 0 W/m² | - |
| 1778059902 | 13.89° C | 91% | 1008.6 hPa | 1.27 mm | - | 0 W/m² | - |
| 1778059600 | 13.89° C | 91% | 1008.5 hPa | 3.05 mm | - | 0 W/m² | - |
| 1778059297 | 13.89° C | 91% | 1008.7 hPa | 1.78 mm | - | 0 W/m² | - |
| 1778058995 | 13.89° C | 91% | 1008.7 hPa | 1.27 mm | - | 0 W/m² | - |
| 1778058692 | 13.89° C | 91% | 1008.8 hPa | 1.27 mm | - | 0 W/m² | - |
| 1778058390 | 13.89° C | 90% | 1009.1 hPa | 1.78 mm | - | 0 W/m² | - |
| 1778058086 | 13.89° C | 90% | 1009 hPa | 1.27 mm | - | 0 W/m² | - |
| 1778057783 | 13.89° C | 90% | 1009 hPa | 3.05 mm | - | 0 W/m² | - |
* Rain latest hour (hover to see other rain measurements)
** Current wind speed in m/s (hover to see current wind gust speed)